Flag for Sweden Weather past 2 weeks in Malmö, Sweden

Now
70 °F

Sunny.


Feels Like: 70 °F
Forecast: 65 / 79 °F
Wind: 7 mph from Southeast

Location: Malmo / Sturup

Current Time: Jul 26, 2014 at 9:39:15 PM

Latest Report: Jul 26, 2014 at 9:20 PM


Visibility: 10 mi

Pressure: 29.98 "Hg

Humidity: 78%

Dew point: 63 °F

Location of MalmöLocation

Historic Weather in Malmö — Graph

°F

Malmö temperature yesterday

Maximum temperature yesterday: 82 °F (at 1:50 PM)
Minimum temperature yesterday: 63 °F (at 1:50 AM)
Average temperature yesterday: 72 °F

Past Weeks' High & Low Weather Summary

 TemperatureHumidityPressure
High82 °F (Jul 25, 1:50 PM)100% (Jul 12, 10:50 PM)30.24 "Hg (Jul 12, 10:50 PM)
Low50 °F (Jul 17, 2:20 AM)36% (Jul 23, 12:20 PM)29.62 "Hg (Jul 13, 10:20 AM)
Average67 °F73%30.03 "Hg
* Reported Jul 11 8:20 PM — Jul 26 8:20 PM, Malmö, Weather by CustomWeather, © 2014

Note: Actual official high and low records may vary slightly from our data, if they occured in-between our weather recording intervals... More about our weather records

Advertising

Malmö weather history for previous 24 hours

 ConditionsComfort  
Time TempWeatherWind HumidityBarometerVisibility
8:20 PM
Jul 26
73 °FSunny.6 mph69%29.98 "Hg10 mi
7:50 PM75 °FSunny.9 mph65%29.98 "Hg10 mi
7:20 PM75 °FSunny.9 mph61%29.98 "Hg10 mi
6:50 PM75 °FPassing clouds.9 mph61%29.98 "HgN/A
6:20 PM77 °FPassing clouds.10 mph61%29.98 "HgN/A
5:50 PM77 °FSunny.12 mph61%29.98 "Hg10 mi
5:20 PM77 °FSunny.13 mph61%29.98 "Hg10 mi
4:50 PM77 °FSunny.13 mph61%29.98 "Hg10 mi
4:20 PM75 °FSunny.12 mph65%29.98 "Hg10 mi
3:50 PM77 °FSunny.14 mph57%29.98 "Hg10 mi
3:20 PM79 °FSunny.17 mph51%29.98 "Hg10 mi
2:50 PM82 °FSunny.12 mph48%29.98 "Hg10 mi
2:20 PM79 °FScattered clouds.14 mph54%29.98 "HgN/A
1:50 PM81 °FSunny.14 mph48%30.01 "Hg10 mi
1:20 PM81 °FPassing clouds.13 mph48%30.01 "HgN/A
12:50 PM81 °FPassing clouds.14 mph48%30.01 "HgN/A
12:20 PM81 °FPassing clouds.10 mph58%30.01 "HgN/A
11:50 AM77 °FPartly sunny.13 mph61%30.01 "HgN/A
11:20 AM79 °FPassing clouds.8 mph58%30.01 "HgN/A
10:50 AM75 °FScattered clouds.9 mph69%30.01 "HgN/A
10:20 AM73 °FPartly sunny.13 mph78%30.01 "HgN/A
9:50 AM73 °FScattered clouds.12 mph78%30.04 "HgN/A
9:20 AM72 °FScattered clouds.13 mph83%30.04 "HgN/A
8:50 AM70 °FPassing clouds.10 mph88%30.04 "HgN/A
8:20 AM70 °FScattered clouds.12 mph88%30.01 "HgN/A
7:50 AM70 °FSunny.12 mph83%30.01 "Hg10 mi
7:20 AM70 °FSunny.10 mph83%30.01 "Hg10 mi
6:50 AM68 °FSunny.10 mph88%30.01 "Hg10 mi
6:20 AM68 °FSunny.8 mph88%30.04 "Hg10 mi
5:50 AM66 °FPassing clouds.6 mph94%30.04 "HgN/A
5:20 AM66 °FClear.7 mph88%30.04 "Hg10 mi
4:50 AM68 °FClear.6 mph88%30.04 "Hg10 mi
4:20 AM68 °FClear.8 mph83%30.04 "Hg10 mi
3:50 AM66 °FClear.7 mph88%30.04 "Hg10 mi
3:20 AM66 °FClear.8 mph88%30.04 "Hg10 mi
2:50 AM66 °FClear.7 mph88%30.04 "Hg10 mi
2:20 AM66 °FClear.7 mph88%30.04 "Hg10 mi
1:50 AM66 °FClear.6 mph88%30.07 "Hg10 mi
1:20 AM66 °FClear.8 mph83%30.07 "Hg10 mi
12:50 AM66 °FClear.8 mph83%30.07 "Hg10 mi
12:20 AM66 °FClear.8 mph83%30.07 "Hg10 mi
11:50 PM
Jul 25
66 °FClear.8 mph83%30.07 "Hg10 mi
11:20 PM68 °FClear.9 mph78%30.07 "Hg10 mi
10:50 PM68 °FClear.9 mph78%30.07 "Hg10 mi
10:20 PM68 °FSunny.8 mph73%30.07 "Hg10 mi
9:50 PM70 °FSunny.7 mph69%30.07 "Hg10 mi
9:20 PM72 °FSunny.8 mph65%30.07 "Hg10 mi
Weather by CustomWeather, © 2014

See weather overviewHow to use our weather pages